Flag for Germany Weather past 2 weeks in Rotenburg (Wümme), Lower Saxony, Germany

Now
70 °F

Passing clouds.


Feels Like: 70 °F
Forecast: 59 / 74 °F
Wind: 2 mph from Northwest

Location: Bremen

Current Time: Jul 5, 2015 at 6:45:31 AM

Latest Report: Jul 5, 2015 at 4:00 AM


Visibility: 22 mi

Pressure: 30.08 "Hg

Humidity: 85%

Dew point: 65 °F

Location of Rotenburg (Wümme)Location

Historic Weather in Rotenburg (Wümme) — Graph

°F

Rotenburg (Wümme) temperature yesterday

Maximum temperature yesterday: 95 °F (at 3:00 PM)
Minimum temperature yesterday: 68 °F (at 6:00 AM)
Average temperature yesterday: 81 °F

Past Weeks' High & Low Weather Summary

 TemperatureHumidityPressure
High95 °F (Jul 4, 3:00 PM)100% (Jun 28, 5:00 AM)30.27 "Hg (Jun 28, 5:00 AM)
Low46 °F (Jun 21, 1:00 AM)32% (Jul 1, 7:00 PM)29.66 "Hg (Jun 22, 9:00 PM)
Average65 °F70%30.07 "Hg
* Reported Jun 20 4:00 AM — Jul 5 4:00 AM, Rotenburg (Wümme), Weather by CustomWeather, © 2015

Note: Actual official high and low records may vary slightly from our data, if they occured in-between our weather recording intervals... More about our weather records

Advertising

Rotenburg (Wümme) weather history for previous 24 hours

 ConditionsComfort  
Time TempWeatherWind HumidityBarometerVisibility
4:00 AM
Sun, Jul 5
70 °FPassing clouds.2 mph85%30.08 "Hg22 mi
3:00 AM69 °FPassing clouds.2 mph86%30.09 "Hg22 mi
2:00 AM71 °FPassing clouds.1 mph82%30.11 "Hg22 mi
1:00 AM75 °FPassing clouds.5 mph71%30.09 "Hg22 mi
12:00 AM77 °FPassing clouds.5 mph73%30.08 "Hg22 mi
10:00 PM
Sat, Jul 4
79 °FOvercast.6 mph62%30.07 "Hg22 mi
9:00 PM83 °FOvercast.1 mph52%30.05 "Hg22 mi
8:00 PM87 °FThunderstorms. Overcast.6 mph55%30.05 "Hg22 mi
7:00 PM86 °FThunderstorms. Partly sunny.9 mph50%30.01 "Hg19 mi
6:00 PM92 °FThunderstorms. Partly sunny.3 mph44%30.00 "Hg19 mi
4:00 PM95 °FScattered clouds.2 mph34%30.03 "Hg19 mi
3:00 PM95 °FScattered clouds.2 mph38%30.03 "Hg16 mi
2:00 PM94 °FOvercast.2 mph41%30.05 "Hg16 mi
1:00 PM90 °FPartly sunny.3 mph42%30.06 "Hg16 mi
12:00 PM87 °FScattered clouds.2 mph49%30.07 "Hg16 mi
11:00 AM84 °FScattered clouds.3 mph54%30.09 "Hg16 mi
10:00 AM80 °FPartly sunny.3 mph57%30.09 "Hg16 mi
9:00 AM77 °FOvercast.2 mph62%30.11 "Hg14 mi
8:00 AM74 °FOvercast.3 mph70%30.11 "Hg12 mi
7:00 AM71 °FPartly sunny.5 mph79%30.11 "Hg9 mi
6:00 AM68 °FPassing clouds.3 mph87%30.13 "Hg6 mi
Weather by CustomWeather, © 2015

See weather overviewHow to use our weather pages